Regional Weather Roundup
Issued by NWS

Home | Current Version | Previous Version | Text Only | Print | Product List | Glossary Off
Versions: 1 2 3 4 5 6 7 8 9 10 11 12 13 14 15 16 17 18 19 20 21 22 23 24 25 26 27 28 29 30 31 32 33 34 35 36 37 38 39 40 41 42 43 44 45 46 47 48 49 50

677
ASUS45 KPSR 231410
RWRAZ

ARIZONA HOURLY REGIONAL WEATHER ROUNDUP
NATIONAL WEATHER SERVICE PHOENIX AZ
700 AM MST MON MAY 23 2016

NOTE: FAIR INDICATES FEW OR NO CLOUDS BELOW 12,000 FEET WITH NO
SIGNIFICANT WEATHER AND/OR OBSTRUCTIONS TO VISIBILITY.

AZZ001>003-036-231500-
NORTHWEST ARIZONA

CITY           SKY/WX    TMP DP  RH WIND       PRES   REMARKS
BULLHEAD CITY  SUNNY     66  27  22 CALM      29.83R
KINGMAN        NOT AVBL
$$

AZZ004>008-015-016-018-231500-
NORTH CENTRAL ARIZONA

CITY           SKY/WX    TMP DP  RH WIND       PRES   REMARKS
GRAND CANYON   SUNNY     43  19  38 CALM      30.01R
WILLIAMS       SUNNY     45  19  36 S5        30.08R
PRESCOTT       SUNNY     51  23  33 CALM      29.97R
FLAGSTAFF      SUNNY     45  25  45 CALM      30.03R
PAYSON         SUNNY     54  28  37 CALM      30.00S
PAGE           SUNNY     59  22  24 N3        29.91R
$$

AZZ009>014-017-231500-
NORTHEAST ARIZONA

CITY           SKY/WX    TMP DP  RH WIND       PRES   REMARKS
WINSLOW        SUNNY     52  31  44 CALM      29.99R
SAINT JOHNS    SUNNY     52  32  46 CALM      30.01R
WINDOW ROCK    SUNNY     52  29  41 CALM      30.04S
SHOW LOW       SUNNY     52  27  37 S12       30.04S
$$

AZZ023-231500-
GREATER PHOENIX AREA

CITY           SKY/WX    TMP DP  RH WIND       PRES   REMARKS
PHOENIX        SUNNY     69  29  22 SE7       29.84R
BUCKEYE        SUNNY     68  27  21 CALM      29.86R
LUKE AFB       SUNNY     67  30  24 S1        29.84R
DEER VALLEY    SUNNY     66  25  21 E6        29.85R
SCOTTSDALE     SUNNY     68  31  25 CALM      29.87R
MESA-FALCON    SUNNY    N/A N/A N/A E6        29.84R
MESA-GATEWAY   SUNNY     63  32  31 SE8       29.87R
$$

AZZ027-028-231500-
SOUTHWEST MARICOPA COUNTY AND PINAL COUNTY

CITY           SKY/WX    TMP DP  RH WIND       PRES   REMARKS
CASA GRANDE    SUNNY     66  25  20 CALM      29.87R
GILA BEND      FAIR      65  24  20 SE5       29.83R
$$

AZZ503-504-507>509-231500-
SOUTHEAST ARIZONA

CITY           SKY/WX    TMP DP  RH WIND       PRES   REMARKS
TUCSON         SUNNY     65  27  23 W6        29.92R
DAVIS-MONTHAN  SUNNY     67  32  26 W2        29.91R
RYAN FIELD     SUNNY     64  27  24 W3        29.92R
NOGALES        SUNNY     62  32  32 CALM      29.96R
SIERRA VISTA   SUNNY     62  32  32 N2        30.00R
DOUGLAS        SUNNY     65  30  27 SE3       29.98S
SAFFORD        SUNNY     64  30  27 SE8       29.91R
$$

AZZ020-021-025-026-031-231500-
SOUTHWEST ARIZONA

CITY           SKY/WX    TMP DP  RH WIND       PRES   REMARKS
YUMA           SUNNY     66  43  43 NW7       29.82R
$$

CAZ031-033-041-043-047-048-061-231500-
SOUTHERN CALIFORNIA

CITY           SKY/WX    TMP DP  RH WIND       PRES   REMARKS
DOWNTOWN L.A.  MOSUNNY   59  50  72 E3        29.93R
L.A. AIRPORT   PTSUNNY   58  51  78 E6        29.94R
SAN DIEGO      PTSUNNY   62  51  67 CALM      29.97R
BURBANK        SUNNY     56  47  71 CALM      29.93R
ONTARIO        MOSUNNY   55  46  71 CALM      29.94R
RIVERSIDE      SUNNY     55  46  71 CALM      29.95R
PALM SPRINGS   SUNNY     64  44  48 W10       29.83R
EL CENTRO NAS  SUNNY     66  40  38 W14       29.83R
IMPERIAL       SUNNY     63  44  50 W9        29.81R
BLYTHE         SUNNY     64  45  49 CALM      29.81R
NEEDLES        SUNNY     71  33  24 CALM      29.80R
$$

NVZ020-UTZ003-231500-
SOUTHERN NEVADA-UTAH

CITY           SKY/WX    TMP DP  RH WIND       PRES   REMARKS
LAS VEGAS      SUNNY     64  33  31 S12       29.78R
SALT LAKE CITY PTSUNNY   48  40  73 S3        29.94S
$$

NMZ009-TXZ055-231500-
NEW MEXICO-WEST TEXAS

CITY           SKY/WX    TMP DP  RH WIND       PRES   REMARKS
ALBUQUERQUE    MOSUNNY   61  28  28 CALM      30.02R
EL PASO        MOSUNNY   77  26  15 W8        29.95R
$$


........................KEY........................
SKY/WX - SKY CONDITION/WEATHER
TMP    - TEMPERATURE IN FAHRENHEIT
DP     - DEW POINT IN FAHRENHEIT
RH     - RELATIVE HUMIDITY IN PERCENT
WIND   - DIRECTION AND SPEED IN MILES PER HOUR (MPH)
VRB    - VARIABLE WIND DIRECTION
PRES   - MEAN SEA LEVEL PRESSURE IN INCHES OF MERCURY
         F - FALLING PRESSURE   R - RISING PRESSURE
         S - STEADY PRESSURE
VSB    - VISIBILITY IN MILES
HX     - HEAT INDEX IN FAHRENHEIT
WCI    - WIND CHILL INDEX IN FAHRENHEIT
TC     - TEMPERATURE IN CELSIUS WHICH IS ALSO KNOWN AS
         TEMPERATURE IN CENTIGRADE
AFB    - AIR FORCE BASE
         LUKE AFB IS LUKE AIR FORCE BASE
         DAVIS-MONTHAN IS DAVIS-MONTHAN AIR FORCE BASE
NAS    - NAVAL AIR STATION
         EL CENTRO NAS IS EL CENTRO NAVAL AIR STATION
N/A    - NOT AVAILABLE





USA.gov is the U.S. government's official web portal to all federal, state and local government web resources and services.